Regional Weather Roundup
Issued by NWS

Home | Current Version | Previous Version | Text Only | Print | Product List | Glossary On
Versions: 1 2 3 4 5 6 7 8 9 10 11 12 13 14 15 16 17 18 19 20 21 22 23 24 25 26 27 28 29 30 31 32 33 34 35 36 37 38 39 40 41 42 43 44 45 46 47 48 49 50
000
ASHW40 PHFO 061232
RWRHI

WEATHER ROUNDUP FOR HAWAII
NATIONAL WEATHER SERVICE HONOLULU HI
200 AM HST TUE DEC 06 2016

THIS IS AN AUTOMATED REPORT THAT HAS NOT BEEN QUALITY CONTROLLED.

NOTE..."FAIR" INDICATES FEW OR NO CLOUDS BELOW 12,000 FEET WITH NO
SIGNIFICANT WEATHER AND/OR OBSTRUCTIONS TO VISIBILITY.

* - THESE SITES REPORT LIMITED FIELDS

HIZ001>004-061300-
KAUAI-NIIHAU-

CITY           SKY/WX    TMP DP  RH WIND       PRES   REMARKS
LIHUE APT      CLOUDY    70  65  84 W7        29.94F
PORT ALLEN*      N/A     70 N/A N/A NE6         N/A
POIPU*           N/A     70 N/A N/A NW1         N/A
PRINCEVILLE*     N/A     68 N/A N/A S2          N/A
KOKOLE POINT*  NOT AVBL
MOLOAA DAIRY*    N/A     70  66  88 SW1         N/A
WAIMEA HTS*    NOT AVBL
PUU OPAE*      NOT AVBL
PUU LUA*       NOT AVBL
MAKAHA RIDGE*    N/A     66  59  77 SW1         N/A
$$

HIZ005>011-061300-
OAHU-

CITY           SKY/WX    TMP DP  RH WIND       PRES   REMARKS
HONOLULU       PTCLDY    67  64  90 NW5       29.92F
KALAELOA       CLEAR     69  65  86 NE3       29.93F
KANEOHE MCB    NOT AVBL
WHEELER FIELD  FAIR      65  64  99 CALM      29.93F
BELLOWS*         N/A    N/A N/A N/A W5          N/A
KAHUKU*          N/A    N/A N/A N/A E1          N/A
WHEELER*       NOT AVBL
WAIANAE HARBOR NOT AVBL
DILLINGHAM*      N/A     84  81  89 MISG        N/A  HX  98
KAHUKU TRN*      N/A     81  79  94 NW1         N/A
KAWAILOA*        N/A     66  63  88 E5          N/A
KII*             N/A     68  66  94 S3          N/A
MAKUA RANGE*     N/A     81  72  74 NW3G10      N/A
OAHU FOREST NW NOT AVBL
SCHOFIELD BRK*   N/A    N/A N/A N/A MISG        N/A
SCHOFIELD S*   NOT AVBL
WAIANAE VLY*   NOT AVBL
KUAOKALA*      NOT AVBL
HONOULIUULI*   NOT AVBL
MOKUOLOE IS*   NOT AVBL
PALEHUA*       NOT AVBL
WAIAWA PHB*    NOT AVBL
$$

HIZ012>013-061300-
MOLOKAI-

CITY           SKY/WX    TMP DP  RH WIND       PRES   REMARKS
MOLOKAI AIRPT    N/A     71  67  87 N5        29.94F
KALAUPAPA      NOT AVBL
MAKAPULAPAI*     N/A     70  66  88 SE5         N/A
MOLOKAI 1*     NOT AVBL
PUU ALII*        N/A     57  57 100 N1          N/A
$$

HIZ016-061300-
KAHOOLAWE-

CITY           SKY/WX    TMP DP  RH WIND       PRES   REMARKS
KAHOOLAWE*     NOT AVBL
HAKIOAWA*        N/A     68  67  98 MISG      30.34F
HONOKANAIA*      N/A     73  68  84 N6        29.87F
KANELOA*         N/A     70  66  88 VRB12     29.99S
KEALIALALO*    NOT AVBL
LUA MAKIKA*    NOT AVBL
$$

HIZ014>015-061300-
LANAI-

CITY           SKY/WX    TMP DP  RH WIND       PRES   REMARKS
LANAI CITY     CLOUDY    67  63  87 E9        29.97F
LANAI 1*       NOT AVBL
$$

HIZ017>028-061300-
MAUI-

CITY           SKY/WX    TMP DP  RH WIND       PRES   REMARKS
KAHULUI        CLOUDY    72  67  84 E7        29.93F
KAPALUA-W MAUI NOT AVBL
HANA AIRPORT   CLOUDY    70  66  88 W5        29.95F
HANA*            N/A     70 N/A N/A W3          N/A
HALEAKALA SUMM   N/A     45  45 100 S9G25       N/A
MAALAEA BAY*     N/A     70 N/A N/A NE9         N/A
HALEAKALA*     NOT AVBL
KAUPO GAP*     NOT AVBL
KULA 1*          N/A     57  53  87 S8G16       N/A
$$

HIZ023>026-061300-
BIG ISLAND OF HAWAII COAST AND LOWER SLOPES-

CITY           SKY/WX    TMP DP  RH WIND       PRES   REMARKS
KAILUA KONA    PTCLDY    73  69  87 SE6       29.89F
HILO           CLOUDY    69  68  96 SW3       29.92F
HONOKAA*         N/A     64 N/A N/A VRB1        N/A
KAWAIHAE MWT*    N/A     73 N/A N/A E3          N/A
KAWAIHAE*        N/A     75 N/A N/A E2        29.90F
SOUTH POINT*     N/A     68 N/A N/A NW6         N/A
UPOLU AIRPORT* NOT AVBL
KAMUELA*       CLOUDY    59  55  88 E8        30.02S
HAKALAU*         N/A     53  52  97 SW1         N/A
KALOKO-HONOKO*   N/A     73  70  88 S1        29.89S
PALI 2*          N/A     70  70 100 SE3         N/A
KEALAKOMO*       N/A     73  68  83 NW3         N/A
KAUPULEHU*     NOT AVBL
KAPAPALA*      NOT AVBL
LOWER KAHUKU*    N/A     57  57 100 N1          N/A
PUHE CS*         N/A     73 N/A N/A E3          N/A
PUHO CS*         N/A     73  67  82 E1          N/A
PTA KEAMUKU*     N/A     63  59  88 CALM        N/A
WAIKOLOA*      NOT AVBL
$$

HIZ027>028-061300-
BIG ISLAND OF HAWAII INTERIOR AND SUMMMITS-

CITY           SKY/WX    TMP DP  RH WIND       PRES   REMARKS
BRADSHAW FIELD PTCLDY    54  50  87 S3        30.23F
MK VISITOR CEN   N/A     46  41  81 N2          N/A
MAUNA KEA*       N/A     34  34 100 S12         N/A  WCI  25
MAUNA LOA*       N/A     43  37  81 MISG        N/A
MAUNA LOA 1*   NOT AVBL
PTA KIPUKA*      N/A     55  54  94 SE2         N/A
PTA RANGE 17*    N/A     55  52  88 NE1G7       N/A
PTA WEST*        N/A     61  57  88 E3          N/A
NENE CABIN*      N/A     54  45  71 NW5         N/A
AHUMOA*        NOT AVBL
PTA PORTABLE*  NOT AVBL
PUU MALI*        N/A     54  54 100 E3          N/A
$$

HIC003-061300-
NORTHWEST ISLANDS-

CITY           SKY/WX    TMP DP  RH WIND       PRES   REMARKS
MIDWAY ISLAND  LGT RAIN  63  61  94 NE3       29.96F
MIDWAY NOS*      N/A     66 N/A N/A MISG      29.94F
FRENCH FRIGATE NOT AVBL
$$

PHZ110>124-180-061300-
BUOY REPORTS

STATION/POSITION TIME  TEMP    WIND        PRES    WAVE   SWELL
                       AIR SEA DIR/SP/G            HT/PER HT/DIR
                 (UTC) (F)     (DEG/KT/KT) (MB)    (FT/S) (FT/D)
BUOY 51001       1210   73 77   CALM  /  4 1013.3
BUOY 51101       1150   73 77   CALM  /  2 1014.1F   9/13   8/ 20
BUOY 51100       NOT AVBL
BUOY 51002       1210   77 78   20/ 10/ 12 1011.6
BUOY 51003       1150   76 79  180/  2/  4 1012.6F   7/11   7/350
BUOY 51004       1150   76 79  130/ 10/ 12 1012.3F   7/ 9   7/ 80
BARBERS PT BUOY  NOT AVBL
WAIMEA BAY BUOY  NOT AVBL
KAILUA BAY BUOY  1204      78                N/A     7/13   5/360
LANAI BUOY       1145      79                N/A     3/14   3/210
BARBERS PT 2     1209      79                N/A     4/11   3/290
PAUWELA MAUI     1209      78                N/A     9/11   7/360
HILO             1212      77                N/A     7/10   3/360
KANEOHE BAY BUOY 1206      77                N/A     7/12   5/350
HANALEI KAUAI    1152      77                N/A     8/11   5
KAHULUI HARBOR   1200   74 77  320/  7/  9 1013.3
HONOLULU HARBOR  1200   72 79   CALM  /  2 1013.7
KILO NALU        NOT AVBL
HILO HARBOR      1200   69 76  210/  2/  3 1012.8
MOKUOLOE         1136          240/  2/  3   N/A
NAWILIWILI       1200   70 78  260/  3/  4 1013.6
WHOTS BUOY       NOT AVBL
BUOY 51028       NOT AVBL
$$

......................KEY........................................
  SKY/WX - SKY CONDITIONS/PRESENT WEATHER
  TMP    - TEMPERATURE IN FAHRENHEIT
  DWPT   - DEWPOINT IN FAHRENHEIT
  RH     - RELATIVE HUMIDITY IN PERCENT
  WIND   - DIRECTION AND SPEED /MPH FOR ISLANDS...KTS FOR BUOYS/
  PRES   - MEAN SEA LEVEL PRESSURE IN INCHES OF HG
  VSB    - VISIBILITY IN MILES
  HX     - HEAT INDEX
  WCI    - WIND CHILL INDEX
  VRB    - VARIABLE WIND DIRECTION
  N/A    - NOT AVAILABLE



USA.gov is the U.S. government's official web portal to all federal, state and local government web resources and services.